HB9HUT-13 Weather Reports


time (UTC)temp
C
wind
direction
speed
KPH
gust
KPH
rain 1hr
cm
rain 24hr
cm
rain mn
cm
humidity
%
barometer
mb
20260506114000 16 0 0.0 0.0 0.00 0.00 0.00 44 836.8
20260506112457 16 0 0.0 0.0 0.00 0.00 0.00 44 836.7
20260506110954 16 0 0.0 0.0 0.00 0.00 0.00 45 836.8
20260506105451 16 0 0.0 0.0 0.00 0.00 0.00 45 836.8
20260506103948 16 0 0.0 0.0 0.00 0.00 0.00 44 836.7
20260506102445 16 0 0.0 0.0 0.00 0.00 0.00 45 836.6
20260506100942 16 0 0.0 0.0 0.00 0.00 0.00 45 836.7
20260506095439 16 0 0.0 0.0 0.00 0.00 0.00 44 836.7
20260506093936 15 0 0.0 0.0 0.00 0.00 0.00 45 836.6
20260506092433 15 0 0.0 0.0 0.00 0.00 0.00 45 836.6
20260506090930 13 0 0.0 0.0 0.00 0.00 0.00 46 836.5
20260506085427 12 0 0.0 0.0 0.00 0.00 0.00 45 836.4
20260506083924 11 0 0.0 0.0 0.00 0.00 0.00 45 836.6
20260506082421 10 0 0.0 0.0 0.00 0.00 0.00 45 836.6
20260506080918 10 0 0.0 0.0 0.00 0.00 0.00 45 836.7
20260506072409 9 0 0.0 0.0 0.00 0.00 0.00 45 837.0
20260506070906 8 0 0.0 0.0 0.00 0.00 0.00 44 837.0
20260506062357 8 0 0.0 0.0 0.00 0.00 0.00 43 836.9
20260506060854 8 0 0.0 0.0 0.00 0.00 0.00 44 836.8
20260506050842 7 0 0.0 0.0 0.00 0.00 0.00 44 836.9
20260506043836 7 0 0.0 0.0 0.00 0.00 0.00 44 837.1
20260506042333 7 0 0.0 0.0 0.00 0.00 0.00 44 837.3
20260506040830 7 0 0.0 0.0 0.00 0.00 0.00 45 837.4
20260506035327 7 0 0.0 0.0 0.00 0.00 0.00 48 837.6
20260506033824 7 0 0.0 0.0 0.00 0.00 0.00 44 837.8
20260506032321 7 0 0.0 0.0 0.00 0.00 0.00 44 838.1
20260506030818 8 0 0.0 0.0 0.00 0.00 0.00 44 838.3
20260506025315 8 0 0.0 0.0 0.00 0.00 0.00 44 838.4
20260506023812 8 0 0.0 0.0 0.00 0.00 0.00 44 838.5
20260506022309 8 0 0.0 0.0 0.00 0.00 0.00 44 838.6
20260506020806 8 0 0.0 0.0 0.00 0.00 0.00 48 838.8
20260506015305 8 0 0.0 0.0 0.00 0.00 0.00 44 838.8
20260506013800 8 0 0.0 0.0 0.00 0.00 0.00 44 839.1
20260506012257 8 0 0.0 0.0 0.00 0.00 0.00 45 839.1
20260506010754 8 0 0.0 0.0 0.00 0.00 0.00 44 839.2
20260506005252 8 0 0.0 0.0 0.00 0.00 0.00 45 839.3
20260506003748 8 0 0.0 0.0 0.00 0.00 0.00 45 839.5
20260506002245 8 0 0.0 0.0 0.00 0.00 0.00 44 839.4
20260506000742 8 0 0.0 0.0 0.00 0.00 0.00 44 839.7
20260505235239 8 0 0.0 0.0 0.00 0.00 0.00 43 840.0
20260505233736 8 0 0.0 0.0 0.00 0.00 0.00 43 839.9
20260505232233 8 0 0.0 0.0 0.00 0.00 0.00 46 839.8
20260505230730 8 0 0.0 0.0 0.00 0.00 0.00 44 839.9
20260505225227 8 0 0.0 0.0 0.00 0.00 0.00 44 840.0
20260505223724 8 0 0.0 0.0 0.00 0.00 0.00 45 840.0
20260505222221 9 0 0.0 0.0 0.00 0.00 0.00 45 840.2
20260505220718 9 0 0.0 0.0 0.00 0.00 0.00 43 840.2
20260505215215 9 0 0.0 0.0 0.00 0.00 0.00 43 840.2
20260505212209 10 0 0.0 0.0 0.00 0.00 0.00 43 840.5
20260505210706 10 0 0.0 0.0 0.00 0.00 0.00 44 840.6
20260505205203 10 0 0.0 0.0 0.00 0.00 0.00 44 840.7
20260505203700 11 0 0.0 0.0 0.00 0.00 0.00 44 840.6
20260505202157 11 0 0.0 0.0 0.00 0.00 0.00 44 840.6
20260505200654 11 0 0.0 0.0 0.00 0.00 0.00 43 840.5
20260505195152 12 0 0.0 0.0 0.00 0.00 0.00 43 840.4
20260505193648 12 0 0.0 0.0 0.00 0.00 0.00 43 840.4
20260505192145 12 0 0.0 0.0 0.00 0.00 0.00 43 840.3
20260505190642 13 0 0.0 0.0 0.00 0.00 0.00 43 840.3
20260505185139 13 0 0.0 0.0 0.00 0.00 0.00 42 840.1
20260505183636 14 0 0.0 0.0 0.00 0.00 0.00 43 840.0
20260505182133 15 0 0.0 0.0 0.00 0.00 0.00 42 840.1
20260505180630 16 0 0.0 0.0 0.00 0.00 0.00 41 839.9
20260505175127 16 0 0.0 0.0 0.00 0.00 0.00 40 839.7
20260505173624 17 0 0.0 0.0 0.00 0.00 0.00 41 839.8
20260505172121 18 0 0.0 0.0 0.00 0.00 0.00 40 839.4
20260505170618 18 0 0.0 0.0 0.00 0.00 0.00 40 839.4
20260505165115 19 0 0.0 0.0 0.00 0.00 0.00 40 839.3
20260505163612 20 0 0.0 0.0 0.00 0.00 0.00 39 839.3
20260505162109 20 0 0.0 0.0 0.00 0.00 0.00 39 839.3
20260505160606 21 0 0.0 0.0 0.00 0.00 0.00 39 839.2
20260505152057 23 0 0.0 0.0 0.00 0.00 0.00 38 838.8
20260505150554 23 0 0.0 0.0 0.00 0.00 0.00 38 838.9
20260505140542 23 0 0.0 0.0 0.00 0.00 0.00 39 838.7
20260505125027 20 0 0.0 0.0 0.00 0.00 0.00 37 839.0
20260505123524 20 0 0.0 0.0 0.00 0.00 0.00 37 839.0
20260505122021 20 0 0.0 0.0 0.00 0.00 0.00 38 839.1
20260505120518 19 0 0.0 0.0 0.00 0.00 0.00 41 839.1